Weather History for Big Delta, AK

Change the Weather History Date:

Thursday, September 19, 2013

  Actual Average Record
Temperature  
Mean Temperature 32 °F -  
Max Temperature 35 °F 47 °F 66 °F (2012)
Min Temperature 30 °F 31 °F 19 °F (2003)
Degree Days  
Heating Degree Days 32    
Moisture  
Dew Point 27 °F    
Average Humidity 84    
Maximum Humidity 96    
Minimum Humidity 64    
Precipitation  
Precipitation 0.02 in - - ()
Sea Level Pressure  
Sea Level Pressure 29.67 in    
Wind  
Wind Speed 5 mph (West)    
Max Wind Speed 12 mph    
Max Gust Speed -    
Visibility 7 miles    
Events Snow    
Averages and records for this station are not official NWS values.
T = Trace of Precipitation, MM = Missing Value Source: NWS Daily Summary

Daily Weather History Graph

Daily Weather History Graph

Search for Another Location

Airport:

Trip Planner

Search our weather history database for the weather conditions in past years. The results will help you decide how hot, cold, wet, or windy it might be!

Date:

Astronomy

Sep. 19, 2013 Rise Set
Actual Time 7:18 AM AKDT 7:52 PM AKDT
Civil Twilight 6:30 AM AKDT 8:40 PM AKDT
Nautical Twilight 5:31 AM AKDT 9:39 PM AKDT
Astronomical Twilight 4:21 AM AKDT 10:47 PM AKDT
Moon 7:24 PM AKDT 8:00 AM AKDT
Length of Visible Light 14h 09m
Length of Day
12h 33m
Full, 100% of the Moon is Illuminated
Sep 19
Full
Sep 26
Last Quarter
Oct 4
New
Oct 11
First Quarter
Oct 18
Full

Hourly Weather History & Observations

Time (AKDT) Temp. Windchill Dew Point Humidity Pressure Visibility Wind Dir Wind Speed Gust Speed Precip Events Conditions
12:53 AM 33.1 °F - 27.0 °F 78% 29.75 in 10.0 mi Calm Calm - N/A   Overcast
1:53 AM 32.0 °F - 27.0 °F 82% 29.75 in 10.0 mi Calm Calm - N/A   Overcast
2:53 AM 32.0 °F 28.7 °F 26.1 °F 79% 29.75 in 10.0 mi West 3.5 mph - N/A   Overcast
3:53 AM 30.9 °F 27.5 °F 26.1 °F 82% 29.74 in 10.0 mi WSW 3.5 mph - N/A   Overcast
4:53 AM 30.0 °F 25.2 °F 28.0 °F 92% 29.73 in 10.0 mi West 4.6 mph - N/A   Overcast
5:53 AM 30.0 °F 25.2 °F 28.0 °F 92% 29.71 in 4.0 mi West 4.6 mph - 0.00 in Snow Light Snow
6:53 AM 30.0 °F 25.2 °F 28.0 °F 92% 29.70 in 9.0 mi SW 4.6 mph - 0.00 in Snow Light Snow
7:22 AM 30.2 °F 24.3 °F 28.4 °F 93% 29.63 in 2.5 mi WSW 5.8 mph - 0.00 in Snow Light Snow
7:25 AM 30.2 °F 24.3 °F 28.4 °F 93% 29.63 in 1.5 mi WSW 5.8 mph - 0.00 in Snow Light Snow
7:31 AM 30.2 °F 25.4 °F 28.4 °F 93% 29.63 in 0.8 mi West 4.6 mph - 0.01 in Snow Light Snow
7:48 AM 30.2 °F 25.4 °F 28.4 °F 93% 29.63 in 1.5 mi West 4.6 mph - 0.02 in Snow Light Snow
8:00 AM 30.2 °F 25.4 °F 28.4 °F 93% 29.63 in 4.0 mi West 4.6 mph - 0.00 in Snow Light Snow
8:08 AM 30.2 °F 24.3 °F 28.4 °F 93% 29.63 in 7.0 mi West 5.8 mph - 0.00 in Snow Light Snow
8:28 AM 30.2 °F 24.3 °F 28.4 °F 93% 29.63 in 2.5 mi West 5.8 mph - 0.00 in Snow Light Snow
8:40 AM 30.2 °F 24.3 °F 28.4 °F 93% 29.63 in 2.5 mi West 5.8 mph - 0.00 in Snow Light Snow
8:53 AM 30.0 °F 24.1 °F 28.9 °F 96% 29.70 in 1.5 mi WNW 5.8 mph - 0.00 in Snow Light Snow
9:07 AM 30.2 °F 24.3 °F 28.4 °F 93% 29.63 in 2.0 mi WNW 5.8 mph - 0.00 in Snow Light Snow
9:18 AM 30.2 °F 24.3 °F 28.4 °F 93% 29.63 in 4.0 mi WNW 5.8 mph - 0.00 in Snow Light Snow
9:43 AM 30.2 °F 24.3 °F 28.4 °F 93% 29.63 in 10.0 mi West 5.8 mph - 0.00 in   Overcast
9:53 AM 30.9 °F 26.2 °F 28.0 °F 89% 29.69 in 9.0 mi West 4.6 mph - 0.00 in Snow Light Snow
10:19 AM 30.2 °F 25.4 °F 28.4 °F 93% 29.63 in 9.0 mi West 4.6 mph - 0.00 in Snow Light Snow
10:26 AM 30.2 °F 25.4 °F 28.4 °F 93% 29.63 in 9.0 mi West 4.6 mph - 0.00 in Snow Light Snow
10:53 AM 32.0 °F 26.4 °F 28.9 °F 88% 29.69 in 7.0 mi West 5.8 mph - 0.00 in Snow Light Snow
11:53 AM 32.0 °F 24.2 °F 28.0 °F 85% 29.70 in 9.0 mi West 9.2 mph - 0.00 in Snow Light Snow
12:51 PM 32.0 °F 24.2 °F 28.4 °F 87% 29.63 in 1.8 mi WNW 9.2 mph - 0.00 in Snow Light Snow
12:53 PM 32.0 °F 24.2 °F 28.0 °F 85% 29.70 in 1.2 mi WNW 9.2 mph - 0.00 in Snow Light Snow
1:00 PM 32.0 °F 24.2 °F 28.4 °F 87% 29.63 in 1.0 mi WNW 9.2 mph - 0.00 in Snow Light Snow
1:10 PM 33.8 °F 27.0 °F 28.4 °F 81% 29.64 in 3.0 mi WNW 8.1 mph - 0.00 in Snow Light Snow
1:53 PM 34.0 °F 25.5 °F 28.0 °F 79% 29.70 in 7.0 mi West 11.5 mph - 0.00 in Snow Light Snow
2:29 PM 33.8 °F 25.8 °F 28.4 °F 81% 29.63 in 7.0 mi West 10.4 mph - 0.00 in Snow Light Snow
2:53 PM 34.0 °F 26.0 °F 28.0 °F 79% 29.70 in 7.0 mi WNW 10.4 mph - 0.00 in Snow Light Snow
3:53 PM 35.1 °F 27.4 °F 26.1 °F 70% 29.69 in 9.0 mi WNW 10.4 mph - 0.00 in   Overcast
4:53 PM 35.1 °F 27.4 °F 26.1 °F 70% 29.69 in 10.0 mi WNW 10.4 mph - N/A   Overcast
5:53 PM 35.1 °F 27.9 °F 24.1 °F 64% 29.68 in 10.0 mi NW 9.2 mph - N/A   Overcast
6:53 PM 35.1 °F 29.3 °F 24.1 °F 64% 29.68 in 10.0 mi NW 6.9 mph - N/A   Overcast
7:53 PM 34.0 °F 28.0 °F 24.1 °F 67% 29.68 in 10.0 mi WNW 6.9 mph - N/A   Mostly Cloudy
8:53 PM 32.0 °F 26.4 °F 25.0 °F 75% 29.67 in 10.0 mi West 5.8 mph - N/A   Overcast
9:53 PM 30.9 °F 23.5 °F 25.0 °F 79% 29.65 in 10.0 mi West 8.1 mph - N/A   Overcast
10:53 PM 30.0 °F 22.4 °F 25.0 °F 82% 29.65 in 10.0 mi WNW 8.1 mph - N/A   Overcast
11:53 PM 30.0 °F 22.4 °F 26.1 °F 85% 29.64 in 10.0 mi WNW 8.1 mph - N/A   Overcast